FENGYUN 1C DEB

Satellite information

Favourite Embed

Satellite Type and Status

DEBRISIN ORBIT

Key statistics

Satellite FENGYUN 1C DEB at a glance.

Uptime

9664

Days in orbit

Revolutions

≈ 14.1

Per day

Orbit

SSO

Sun Synchronous Orbit

Inclination

98.7

Latest

Satellite identification and parameters

Extended collection of information and parameters for FENGYUN 1C DEB.

Object identification

Identified? True

Debris? True

Object name: FENGYUN 1C DEB

International designator: 1999-025HW

Object number (NORAD): 29924

Object ID (CCSDS): 29924

Country: PEOPLES REPUBLIC OF CHINA (PRC)

Current information (Y/N): Y

RCS size: SMALL

Orbital parameters

Period: 102.21 minutes

Inclination: 98.7381 deg

SMA: 7241.381 km

Apoapsis: 883.232 km

Periapsis: 843.261 km

RAAN: 310.8175 deg

Eccentricy: 0.0027599

Argument of periapsis: 42.4618 deg

Mean anomaly: 330.0425 deg

Mean motion: 14.0886913 rev/day

Mean motion (dot): 0.00000078 rev/day2

B* drag term: 0.000069407 1/REarth

Two-line elements (TLE)

Creation date: Oct. 23, 2025, 10:26 p.m.

Reference frame: TEME

Reference center: EARTH

Epoch: Oct. 23, 2025, 7:19 a.m. UTC

TLE line 0: 0 FENGYUN 1C DEB

TLE line 1: 1 29924U 99025HW 25296.30549365 .00000078 00000-0 69407-4 0 9995

TLE line 2: 2 29924 98.7381 310.8175 0027599 42.4618 330.0425 14.08869130964989

Live tracking on map

Real-time ground track for satellite FENGYUN 1C DEB.

In-orbit conjunctions

A list of the most updated potential collisions computed for object FENGYUN 1C DEB.

Target Orbit TCA Probability of collision Miss distance Type
COSMOS 1275 DEB LEO 2025-05-29 06:31:24 0.001191886 29.0 (m) DEBRIS
CZ-6A DEB LEO 2025-03-09 04:54:21 0.000105731 107.0 (m) DEBRIS

Associated space launch

Chinese polar orbiting meteorological satellite

FENGYUN 1C DEB was lifted into orbit during the mission ‘Long March 4B | Feng Yun 1C’, on board a Long March 4B space rocket.

The launch took place on May 10, 1999, 1:33 a.m. from Launch Complex 7.

For more information about the launch, click the button.

Launch to space Long March 4B | Feng Yun 1C
Long March 4B | Feng Yun 1C

Agency: N/A

Status: Launch Successful

Launch date: May 10, 1999, 1:33 a.m. UTC

Rocket: Long March 4B

Launch pad: Launch Complex 7

Location: Taiyuan Satellite Launch Center, People's Republic of China

...

Latest news about this satellite

There are no fresh news available about this satellite. Check back as we update our databases every day.


Newsletter sign-up

Weekly statistics, charts and insights to help you stay on top of the space industry.